Tracking 35274 objects as of 11-Sep-2026
HD Live streaming from Space Station
objects crossing your sky now

PSLV DEB


PSLV DEB is no longer on orbit


NORAD ID: 27163
Int'l Code: 2001-049DK
Launch date: October 22, 2001
Source: India (IND)
Launch site: SRIHARIKOTA (SRI)
Decay date: 2002-11-24

Note: This is SATELLITE DEBRIS
Your satellite tracking list
Your tracking list is empty




NASA's NSSDC Master Catalog

Two Line Element Set (TLE):
1 27163U 01049DK  02327.39262252 +.05556874 +33829-5 +13460-2 0  9994
2 27163 098.7786 113.8247 0021662 311.6957 051.3400 16.28681708051669
Source of the keplerian elements: AFSPC